FW0153 Weather Reports


time (UTC)temp
C
wind
direction
speed
KPH
gust
KPH
rain 1hr
cm
rain 24hr
cm
rain mn
cm
humidity
%
barometer
mb
20260507224505 23 87 29.0 0.0 0.00 0.00 0.00 82 1012.3
20260507224005 23 43 14.5 0.0 0.00 0.00 0.00 81 1012.3
20260507223505 23 322 14.5 0.0 0.00 0.00 0.00 82 1012.7
20260507223005 23 40 29.0 0.0 0.00 0.00 0.00 82 1012.7
20260507222505 23 37 6.4 0.0 0.00 0.00 0.00 82 1012.3
20260507222005 23 32 37.0 0.0 0.00 0.00 0.00 81 1012.7
20260507221505 23 329 37.0 0.0 0.00 0.00 0.00 81 1012.3
20260507221005 23 333 14.5 0.0 0.00 0.00 0.00 81 1012.3
20260507220505 23 15 6.4 0.0 0.00 0.00 0.00 81 1012.3
20260507220212 23 359 29.0 0.0 0.00 0.00 0.00 80 1012.3
20260507215505 23 41 29.0 0.0 0.00 0.00 0.00 81 1012.3
20260507215212 23 41 20.9 0.0 0.00 0.00 0.00 82 1012.7
20260507214505 23 151 6.4 0.0 0.00 0.00 0.00 81 1012.7
20260507214005 23 37 37.0 0.0 0.00 0.00 0.00 81 1012.7
20260507213505 23 32 6.4 0.0 0.00 0.00 0.00 81 1012.7
20260507213005 23 18 43.5 0.0 0.00 0.00 0.00 81 1012.3
20260507212504 23 331 29.0 0.0 0.00 0.00 0.00 80 1012.7
20260507212005 23 321 37.0 0.0 0.00 0.00 0.00 80 1012.7
20260507211505 23 340 43.5 0.0 0.00 0.00 0.00 80 1012.7
20260507211005 24 357 20.9 0.0 0.00 0.00 0.00 77 1012.7
20260507210505 24 21 14.5 0.0 0.00 0.00 0.00 78 1012.7
20260507210006 24 137 20.9 0.0 0.00 0.00 0.00 76 1012.7
20260507205505 23 31 6.4 0.0 0.00 0.00 0.00 78 1013.0
20260507205004 23 319 20.9 0.0 0.00 0.00 0.00 79 1013.0
20260507204505 23 53 14.5 0.0 0.00 0.00 0.00 79 1013.0
20260507204005 24 102 29.0 0.0 0.00 0.00 0.00 78 1013.3
20260507203505 24 12 20.9 0.0 0.00 0.00 0.00 77 1013.3
20260507203005 25 72 6.4 0.0 0.00 0.00 0.00 76 1013.3
20260507202505 25 65 14.5 0.0 0.00 0.00 0.00 76 1013.3
20260507202005 24 31 51.5 0.0 0.00 0.00 0.00 76 1013.3
20260507201505 24 78 14.5 0.0 0.00 0.00 0.00 76 1013.7
20260507201213 24 29 29.0 0.0 0.00 0.00 0.00 77 1013.7
20260507200505 24 5 20.9 0.0 0.00 0.00 0.00 77 1013.7
20260507200213 24 1 29.0 0.0 0.00 0.00 0.00 77 1013.3
20260507195505 24 28 43.5 0.0 0.00 0.00 0.00 77 1013.7
20260507195213 25 2 14.5 0.0 0.00 0.00 0.00 76 1014.0
20260507194712 24 93 14.5 0.0 0.00 0.00 0.00 78 1014.0
20260507194005 23 35 20.9 0.0 0.00 0.00 0.00 78 1014.0
20260507193504 23 28 29.0 0.0 0.00 0.00 0.00 79 1014.0
20260507193005 24 341 14.5 0.0 0.00 0.00 0.00 79 1014.0
20260507192505 23 37 20.9 0.0 0.00 0.00 0.00 79 1014.0
20260507192213 23 287 6.4 0.0 0.00 0.00 0.00 79 1014.4
20260507191505 24 325 29.0 0.0 0.00 0.00 0.00 78 1014.0
20260507191213 25 50 14.5 0.0 0.00 0.00 0.00 77 1014.4
20260507190712 25 333 37.0 0.0 0.00 0.00 0.00 78 1014.0
20260507190006 24 13 29.0 0.0 0.00 0.00 0.00 78 1014.4
20260507185505 25 30 29.0 0.0 0.00 0.00 0.00 77 1014.4
20260507185005 24 17 6.4 0.0 0.00 0.00 0.00 79 1014.4
20260507184505 24 233 29.0 0.0 0.00 0.00 0.00 78 1014.4
20260507184005 24 302 20.9 0.0 0.00 0.00 0.00 79 1014.4
20260507183714 23 39 29.0 0.0 0.00 0.00 0.00 80 1014.4
20260507183005 23 15 20.9 0.0 0.00 0.00 0.00 81 1014.7
20260507182505 23 294 14.5 0.0 0.00 0.00 0.00 82 1015.0
20260507182005 23 350 20.9 0.0 0.00 0.00 0.00 83 1014.7
20260507181505 23 4 20.9 0.0 0.00 0.00 0.00 83 1015.0
20260507181005 23 308 14.5 0.0 0.00 0.00 0.00 83 1015.0
20260507180505 23 309 14.5 0.0 0.00 0.00 0.00 84 1015.0
20260507180004 23 341 29.0 0.0 0.00 0.00 0.00 84 1015.4
20260507175505 22 304 37.0 0.0 0.00 0.00 0.00 85 1015.0
20260507175005 22 90 6.4 0.0 0.00 0.00 0.00 87 1015.0
20260507174505 22 37 6.4 0.0 0.00 0.00 0.00 86 1015.0
20260507174005 22 350 20.9 0.0 0.00 0.00 0.00 86 1015.0
20260507173505 22 318 20.9 0.0 0.00 0.00 0.00 87 1015.0
20260507173005 22 35 20.9 0.0 0.00 0.00 0.00 86 1015.4
20260507172505 22 16 6.4 0.0 0.00 0.00 0.00 86 1015.4
20260507172005 22 16 6.4 0.0 0.00 0.00 0.00 86 1015.0
20260507171505 22 314 14.5 0.0 0.00 0.00 0.00 86 1015.4
20260507171005 23 31 14.5 0.0 0.00 0.00 0.00 86 1015.0
20260507170505 23 27 14.5 0.0 0.00 0.00 0.00 85 1015.0
20260507170005 23 40 6.4 0.0 0.00 0.00 0.00 85 1015.4
20260507165505 23 16 20.9 0.0 0.00 0.00 0.00 85 1015.4
20260507165005 23 62 0.0 0.0 0.00 0.00 0.00 86 1015.0
20260507164504 23 11 20.9 0.0 0.00 0.00 0.00 85 1015.0
20260507164005 23 288 14.5 0.0 0.00 0.00 0.00 85 1015.0
20260507163505 23 78 0.0 0.0 0.00 0.00 0.00 86 1015.0
20260507163212 22 32 20.9 0.0 0.00 0.00 0.00 86 1015.0
20260507162505 22 294 14.5 0.0 0.00 0.00 0.00 86 1015.0
20260507162004 22 9 29.0 0.0 0.00 0.00 0.00 86 1015.4
20260507161505 22 66 14.5 0.0 0.00 0.00 0.00 86 1015.0
20260507161212 22 325 14.5 0.0 0.00 0.00 0.00 87 1015.0
20260507160505 22 8 6.4 0.0 0.00 0.00 0.00 88 1015.0
20260507160005 22 25 14.5 0.0 0.00 0.00 0.00 88 1015.0
20260507155713 22 329 29.0 0.0 0.00 0.00 0.00 88 1015.0
20260507155212 22 56 0.0 0.0 0.00 0.00 0.00 88 1015.0
20260507154505 22 26 6.4 0.0 0.00 0.00 0.00 88 1014.7
20260507154006 22 328 29.0 0.0 0.00 0.00 0.00 88 1014.7
20260507153505 22 348 37.0 0.0 0.00 0.00 0.00 88 1014.7
20260507153213 22 337 20.9 0.0 0.00 0.00 0.00 88 1015.0
20260507152504 22 26 20.9 0.0 0.00 0.00 0.00 88 1014.7
20260507152005 22 334 6.4 0.0 0.00 0.00 0.00 89 1014.7
20260507151505 22 114 0.0 0.0 0.00 0.00 0.00 89 1014.7
20260507151005 22 161 6.4 0.0 0.00 0.00 0.00 89 1014.4
20260507150505 22 335 6.4 0.0 0.00 0.00 0.00 90 1014.7
20260507150006 22 307 6.4 0.0 0.00 0.00 0.00 90 1014.4
20260507145505 22 309 20.9 0.0 0.00 0.00 0.00 90 1014.7
20260507145005 22 331 14.5 0.0 0.00 0.00 0.00 90 1014.4
20260507144505 22 346 6.4 0.0 0.00 0.00 0.00 90 1014.4
20260507144005 22 25 37.0 0.0 0.00 0.00 0.00 90 1014.4
20260507143504 22 68 6.4 0.0 0.00 0.00 0.00 90 1014.4
20260507143005 22 314 14.5 0.0 0.00 0.00 0.00 90 1014.4
20260507142505 22 56 14.5 0.0 0.00 0.00 0.00 90 1014.0
20260507142005 22 45 14.5 0.0 0.00 0.00 0.00 90 1014.0
20260507141505 22 5 6.4 0.0 0.00 0.00 0.00 91 1014.0
20260507141007 22 328 6.4 0.0 0.00 0.00 0.00 91 1014.0
20260507140505 22 29 14.5 0.0 0.00 0.00 0.00 91 1014.0
20260507140005 22 349 20.9 0.0 0.00 0.00 0.00 91 1013.7
20260507135505 22 333 43.5 0.0 0.00 0.00 0.00 90 1013.7
20260507135005 22 11 14.5 0.0 0.00 0.00 0.00 90 1013.7
20260507134505 22 73 14.5 0.0 0.00 0.00 0.00 90 1013.7
20260507134005 22 21 20.9 0.0 0.00 0.00 0.00 90 1013.3
20260507133505 22 17 29.0 0.0 0.00 0.00 0.00 90 1013.3
20260507133005 22 21 14.5 0.0 0.00 0.00 0.00 90 1013.3
20260507132505 23 357 37.0 0.0 0.00 0.00 0.00 90 1013.3
20260507132005 23 50 20.9 0.0 0.00 0.00 0.00 90 1013.0
20260507131505 23 32 6.4 0.0 0.00 0.00 0.00 89 1013.0
20260507131213 23 334 14.5 0.0 0.00 0.00 0.00 89 1013.0
20260507130505 23 10 20.9 0.0 0.00 0.00 0.00 88 1013.0
20260507125505 25 34 14.5 0.0 0.00 0.00 0.00 89 1012.3
20260507125005 25 149 6.4 0.0 0.00 0.00 0.00 90 1012.3
20260507124505 25 312 6.4 0.0 0.00 0.00 0.00 90 1012.3
20260507124005 25 43 6.4 0.0 0.00 0.00 0.00 90 1012.3
20260507123505 25 89 0.0 0.0 0.00 0.00 0.00 90 1012.3
20260507123212 25 53 6.4 0.0 0.00 0.00 0.00 90 1012.3
20260507122713 25 6 6.4 0.0 0.00 0.00 0.00 90 1012.3
20260507122005 25 83 0.0 0.0 0.00 0.00 0.00 90 1012.0
20260507121505 25 53 6.4 0.0 0.00 0.00 0.00 90 1012.3
20260507121006 25 89 0.0 0.0 0.00 0.00 0.00 90 1012.3
20260507120505 25 90 0.0 0.0 0.00 0.00 0.00 90 1012.3
20260507120006 25 14 6.4 0.0 0.00 0.00 0.00 90 1012.0
20260507115504 25 54 0.0 0.0 0.00 0.00 0.00 90 1011.6
20260507115005 25 55 6.4 0.0 0.00 0.00 0.00 90 1011.6
20260507114505 25 96 0.0 0.0 0.00 0.00 0.00 90 1011.6
20260507114005 25 56 6.4 0.0 0.00 0.00 0.00 90 1011.6
20260507113711 25 92 0.0 0.0 0.00 0.00 0.00 90 1011.6
20260507113005 25 79 6.4 0.0 0.00 0.00 0.00 90 1011.6
20260507112711 25 68 0.0 0.0 0.00 0.00 0.00 90 1011.6
20260507112005 25 54 6.4 0.0 0.00 0.00 0.00 90 1011.6
20260507111506 25 59 6.4 0.0 0.00 0.00 0.00 90 1011.3
20260507111005 25 67 0.0 0.0 0.00 0.00 0.00 90 1011.3
20260507110505 25 68 0.0 0.0 0.00 0.00 0.00 90 1011.3
20260507110212 25 73 0.0 0.0 0.00 0.00 0.00 90 1011.6
20260507105504 25 32 6.4 0.0 0.00 0.00 0.00 90 1011.3
20260507105005 25 25 6.4 0.0 0.00 0.00 0.00 90 1010.6
20260507104505 25 79 0.0 0.0 0.00 0.00 0.00 90 1010.6
20260507104005 25 86 0.0 0.0 0.00 0.00 0.00 90 1011.0
20260507103505 25 77 0.0 0.0 0.00 0.00 0.00 90 1011.3
20260507103005 25 85 0.0 0.0 0.00 0.00 0.00 90 1011.3
20260507102505 25 88 0.0 0.0 0.00 0.00 0.00 90 1011.6
20260507102007 25 7 6.4 0.0 0.00 0.00 0.00 90 1011.6
20260507101507 25 127 0.0 0.0 0.00 0.00 0.00 90 1011.6
20260507101004 25 85 0.0 0.0 0.00 0.00 0.00 90 1011.3
20260507100713 25 107 0.0 0.0 0.00 0.00 0.00 90 1011.6
20260507100005 25 93 0.0 0.0 0.00 0.00 0.00 90 1011.3
20260507095504 25 110 0.0 0.0 0.00 0.00 0.00 90 1010.6
20260507095005 25 95 0.0 0.0 0.00 0.00 0.00 90 1010.6
20260507094505 25 86 0.0 0.0 0.00 0.00 0.00 90 1011.0
20260507094005 25 289 6.4 0.0 0.00 0.00 0.00 90 1011.3
20260507093505 25 292 6.4 0.0 0.00 0.00 0.00 90 1011.0
20260507093005 25 98 0.0 0.0 0.00 0.00 0.00 90 1010.3
20260507092505 25 66 0.0 0.0 0.00 0.00 0.00 89 1010.6
20260507092005 25 68 0.0 0.0 0.00 0.00 0.00 89 1010.6
20260507091505 25 85 6.4 0.0 0.00 0.00 0.00 89 1011.0
20260507091004 25 64 0.0 0.0 0.00 0.00 0.00 89 1011.0
20260507090505 25 87 6.4 0.0 0.00 0.00 0.00 89 1011.0
20260507090006 25 94 0.0 0.0 0.00 0.00 0.00 88 1011.3
20260507085505 25 29 14.5 0.0 0.00 0.00 0.00 88 1011.3
20260507085211 25 87 6.4 0.0 0.00 0.00 0.00 88 1011.3
20260507084505 25 59 0.0 0.0 0.00 0.00 0.00 88 1011.3
20260507084213 25 50 0.0 0.0 0.00 0.00 0.00 88 1011.6
20260507083505 25 13 6.4 0.0 0.00 0.00 0.00 88 1011.6
20260507083005 25 56 0.0 0.0 0.00 0.00 0.00 87 1011.6
20260507082505 25 44 6.4 0.0 0.00 0.00 0.00 87 1011.6
20260507082005 25 61 6.4 0.0 0.00 0.00 0.00 87 1011.6
20260507081505 25 84 0.0 0.0 0.00 0.00 0.00 87 1011.6
20260507081005 25 79 0.0 0.0 0.00 0.00 0.00 87 1012.0
20260507080505 25 91 0.0 0.0 0.00 0.00 0.00 87 1012.0
20260507080005 25 89 0.0 0.0 0.00 0.00 0.00 87 1012.0
20260507075504 25 77 0.0 0.0 0.00 0.00 0.00 87 1011.6
20260507075005 25 85 0.0 0.0 0.00 0.00 0.00 87 1012.0
20260507074505 25 80 0.0 0.0 0.00 0.00 0.00 87 1012.0
20260507074005 25 72 0.0 0.0 0.00 0.00 0.00 87 1012.0
20260507073505 25 52 6.4 0.0 0.00 0.00 0.00 87 1012.0
20260507073005 25 96 0.0 0.0 0.00 0.00 0.00 87 1012.0
20260507072505 25 96 6.4 0.0 0.00 0.00 0.00 87 1012.0
20260507072006 25 65 0.0 0.0 0.00 0.00 0.00 87 1011.6
20260507071505 25 98 0.0 0.0 0.00 0.00 0.00 87 1011.6
20260507071005 25 101 0.0 0.0 0.00 0.00 0.00 87 1011.6
20260507070505 25 98 0.0 0.0 0.00 0.00 0.00 87 1011.6
20260507070009 25 46 6.4 0.0 0.00 0.00 0.00 87 1012.0
20260507065505 25 83 0.0 0.0 0.00 0.00 0.00 86 1011.6
20260507065005 25 60 6.4 0.0 0.00 0.00 0.00 86 1012.0
20260507064505 25 69 0.0 0.0 0.00 0.00 0.00 86 1012.0
20260507064005 25 84 0.0 0.0 0.00 0.00 0.00 86 1012.0
20260507063505 25 69 6.4 0.0 0.00 0.00 0.00 86 1012.0
20260507063212 25 83 0.0 0.0 0.00 0.00 0.00 85 1012.0
20260507062506 25 84 6.4 0.0 0.00 0.00 0.00 85 1012.0
20260507062004 25 83 0.0 0.0 0.00 0.00 0.00 85 1011.6
20260507061505 25 69 0.0 0.0 0.00 0.00 0.00 85 1012.0
20260507061005 25 69 0.0 0.0 0.00 0.00 0.00 85 1012.0
20260507060505 25 62 6.4 0.0 0.00 0.00 0.00 85 1012.0
20260507060005 25 74 0.0 0.0 0.00 0.00 0.00 85 1012.0
20260507055713 25 74 0.0 0.0 0.00 0.00 0.00 85 1012.3
20260507055005 25 77 0.0 0.0 0.00 0.00 0.00 85 1012.3
20260507054505 25 75 0.0 0.0 0.00 0.00 0.00 85 1012.0
20260507054005 25 72 6.4 0.0 0.00 0.00 0.00 85 1012.0
20260507053505 25 73 0.0 0.0 0.00 0.00 0.00 85 1012.3
20260507053005 25 76 0.0 0.0 0.00 0.00 0.00 85 1012.0
20260507052505 25 95 0.0 0.0 0.00 0.00 0.00 85 1012.0
20260507052005 25 44 0.0 0.0 0.00 0.00 0.00 85 1012.3
20260507051505 25 79 0.0 0.0 0.00 0.00 0.00 85 1012.0
20260507050505 25 94 0.0 0.0 0.00 0.00 0.00 86 1012.0
20260507045713 25 71 0.0 0.0 0.00 0.00 0.00 86 1012.0
20260507045212 25 67 0.0 0.0 0.00 0.00 0.00 86 1012.0
20260507044505 25 14 14.5 0.0 0.00 0.00 0.00 86 1012.0
20260507044005 25 87 0.0 0.0 0.00 0.00 0.00 86 1012.0
20260507043505 25 56 14.5 0.0 0.00 0.00 0.00 86 1012.0
20260507043005 25 94 0.0 0.0 0.00 0.00 0.00 86 1011.6
20260507042505 25 83 0.0 0.0 0.00 0.00 0.00 85 1012.0
20260507042005 25 72 6.4 0.0 0.00 0.00 0.00 85 1012.0
20260507041504 25 46 0.0 0.0 0.00 0.00 0.00 85 1011.6
20260507041005 25 350 20.9 0.0 0.00 0.00 0.00 85 1011.3
20260507040505 25 63 6.4 0.0 0.00 0.00 0.00 86 1011.3
20260507040005 25 69 6.4 0.0 0.00 0.00 0.00 86 1011.3
20260507035505 25 77 14.5 0.0 0.00 0.00 0.00 85 1011.3
20260507035005 25 50 0.0 0.0 0.00 0.00 0.00 85 1011.3
20260507034713 25 74 6.4 0.0 0.00 0.00 0.00 85 1011.3
20260507034005 25 71 0.0 0.0 0.00 0.00 0.00 84 1011.0
20260507033505 25 76 0.0 0.0 0.00 0.00 0.00 84 1011.3
20260507033005 25 81 6.4 0.0 0.00 0.00 0.00 84 1011.0
20260507032505 25 73 0.0 0.0 0.00 0.00 0.00 84 1011.0
20260507032005 26 27 6.4 0.0 0.00 0.00 0.00 83 1011.0
20260507031712 26 59 6.4 0.0 0.00 0.00 0.00 83 1011.0
20260507031005 26 81 6.4 0.0 0.00 0.00 0.00 82 1011.0
20260507030505 26 57 14.5 0.0 0.00 0.00 0.00 82 1010.6
20260507030005 26 76 6.4 0.0 0.00 0.00 0.00 81 1010.6
20260507025505 26 26 29.0 0.0 0.00 0.00 0.00 81 1010.3
20260507025005 26 61 0.0 0.0 0.00 0.00 0.00 80 1010.3
20260507024712 26 84 0.0 0.0 0.00 0.00 0.00 80 1009.9
20260507024213 26 54 6.4 0.0 0.00 0.00 0.00 79 1009.9
20260507023505 26 36 6.4 0.0 0.00 0.00 0.00 79 1009.9
20260507023005 26 78 6.4 0.0 0.00 0.00 0.00 78 1009.9
20260507022505 26 44 6.4 0.0 0.00 0.00 0.00 78 1009.6
20260507022212 27 79 0.0 0.0 0.00 0.00 0.00 77 1009.6
20260507021505 27 48 14.5 0.0 0.00 0.00 0.00 77 1009.6
20260507021004 27 84 6.4 0.0 0.00 0.00 0.00 76 1009.3
20260507020505 27 109 6.4 0.0 0.00 0.00 0.00 76 1009.3
20260507020005 27 65 14.5 0.0 0.00 0.00 0.00 75 1009.3
20260507015505 27 91 6.4 0.0 0.00 0.00 0.00 75 1008.9
20260507015005 27 66 6.4 0.0 0.00 0.00 0.00 74 1008.9
20260507014505 27 65 6.4 0.0 0.00 0.00 0.00 74 1008.9
20260507014212 27 39 6.4 0.0 0.00 0.00 0.00 74 1008.6
20260507013505 27 78 0.0 0.0 0.00 0.00 0.00 74 1008.6
20260507013005 28 48 20.9 0.0 0.00 0.00 0.00 73 1008.6
20260507012713 28 56 14.5 0.0 0.00 0.00 0.00 73 1008.2
20260507012005 28 70 20.9 0.0 0.00 0.00 0.00 73 1008.2
20260507011505 28 42 14.5 0.0 0.00 0.00 0.00 72 1008.2
20260507010505 28 35 29.0 0.0 0.00 0.00 0.00 72 1007.9
20260507010005 28 359 20.9 0.0 0.00 0.00 0.00 71 1007.9
20260507005505 28 20 6.4 0.0 0.00 0.00 0.00 71 1007.2
20260507005212 28 61 14.5 0.0 0.00 0.00 0.00 71 1007.6
20260507004711 28 326 20.9 0.0 0.00 0.00 0.00 71 1007.6
20260507004005 28 76 6.4 0.0 0.00 0.00 0.00 71 1007.6
20260507003505 28 42 6.4 0.0 0.00 0.00 0.00 70 1007.2
20260507003212 28 4 14.5 0.0 0.00 0.00 0.00 70 1007.6
20260507002505 29 57 6.4 0.0 0.00 0.00 0.00 69 1007.2
20260507002005 29 84 14.5 0.0 0.00 0.00 0.00 69 1007.2
20260507001505 29 81 0.0 0.0 0.00 0.00 0.00 69 1006.9
20260507001005 29 47 20.9 0.0 0.00 0.00 0.00 68 1006.9
20260507000505 30 311 14.5 0.0 0.00 0.00 0.00 67 1006.9
20260507000005 30 98 20.9 0.0 0.00 0.00 0.00 66 1006.9
20260506235504 30 123 6.4 0.0 0.00 0.00 0.00 65 1006.9
20260506235212 30 32 20.9 0.0 0.00 0.00 0.00 65 1006.9
20260506234504 30 323 20.9 0.0 0.00 0.00 0.00 65 1006.5
20260506234005 31 53 14.5 0.0 0.00 0.00 0.00 62 1006.2
20260506233505 31 44 6.4 0.0 0.00 0.00 0.00 55 1006.2
20260506233005 31 73 0.0 0.0 0.00 0.00 0.00 53 1006.5
20260506232505 31 276 14.5 0.0 0.00 0.00 0.00 53 1006.2
20260506232005 31 75 0.0 0.0 0.00 0.00 0.00 54 1006.2
20260506231505 31 324 14.5 0.0 0.00 0.00 0.00 53 1005.9
20260506231005 32 51 6.4 0.0 0.00 0.00 0.00 54 1006.2
20260506230505 32 99 0.0 0.0 0.00 0.00 0.00 52 1006.2
20260506230005 32 49 14.5 0.0 0.00 0.00 0.00 51 1006.2
20260506225505 32 68 6.4 0.0 0.00 0.00 0.00 51 1005.9
20260506225005 32 106 0.0 0.0 0.00 0.00 0.00 51 1006.2